Location: Bauerbach
(50.4985°N, 10.3912°E)
Time: 10:32:47
(UTC+00:00)

Cosmos 2369 Rocket - Pass Details

Date: 13 January 2026
Orbit: 826 x 853 km, 71.0° (Epoch: 15 February)

Event Time Altitude Azimuth Distance (km) Brightness Sun altitude
Rises 06:33:19 0° 178° (S) 3,390 5.8 -6.5°
Reaches altitude 10° 06:35:56 10° 169° (S) 2,463 5.2 -6.1°
Maximum altitude 06:40:59 34° 106° (ESE) 1,361 4.2 -5.4°
Drops below altitude 10° 06:46:04 10° 43° (NE) 2,489 4.9 -4.7°
Sets 06:48:43 0° 35° (NE) 3,431 5.5 -4.3°
